Tracking 30101 objects as of 14-Dec-2024
HD Live streaming from Space Station
objects crossing your sky now

ARIANE 5 R/B

Track ARIANE 5 R/B now!


NORAD ID: 39080
Int'l Code: 2013-006C
Perigee: 256.9 km
Apogee: 33,881.8 km
Inclination: 6.0 °
Period: 595.3 minutes
Semi major axis: 23440 km
RCS: 25.327 m2 (large)
Launch date: February 7, 2013
Source: France (FR)
Launch site: FRENCH GUIANA (FRGUI)

Note: This is a ROCKET BODY
Your satellite tracking list
Your tracking list is empty




NASA's NSSDC Master Catalog

Two Line Element Set (TLE):
1 39080U 13006C   24349.04322909  .00005591  00000-0  14900-2 0  9997
2 39080   6.0418 236.6710 7172429 229.8440  41.7935  2.41911613101332
Source of the keplerian elements: AFSPC